Location: Comstock Ranch
(38.0499°N, 120.2627°W)
Time: 22:04:33
(UTC+00:00)

Okean 1-7 Rocket - Pass Details

Date: 08 September 2024
Orbit: 611 x 646 km, 82.5° (Epoch: 12 October)

Event Time Altitude Azimuth Distance (km) Brightness Sun altitude
Rises 12:22:36 0° 350° (N) 2,941 7.2 -15.1°
Reaches altitude 10° 12:24:52 10° 349° (N) 2,023 6.3 -14.7°
Maximum altitude 12:29:20 74° 265° (W) 656 3.5 -13.9°
Drops below altitude 10° 12:33:43 10° 180° (S) 1,985 6.0 -13.1°
Sets 12:35:55 0° 179° (S) 2,881 6.8 -12.6°
